Home   Weather   Gummersbach   Past weeks

Flag for Germany Past Weather in Gummersbach, North Rhine-Westphalia, Germany — Yesterday and Last 2 Weeks

Now
59 °F

Passing clouds.


Feels Like: 57 °F
Forecast: 55 / 68 °F
Wind: 9 mph from Northwest

Location: Koeln / Bonn

Current Time: Jul 26, 2017 at 2:57:47 am

Latest Report: Jul 26, 2017 at 2:20 am


Visibility: 6 mi

Pressure: 29.80 "Hg

Humidity: 100%

Dew Point: 59 °F

Location of GummersbachLocation

Past Weather in Gummersbach — Graph

°F

Gummersbach Temperature Yesterday

Maximum temperature yesterday: 64 °F (at 1:20 pm)
Minimum temperature yesterday: 57 °F (at 12:20 am)
Average temperature yesterday: 59 °F

High & Low Weather Summary for the Past Weeks

 TemperatureHumidityPressure
High90 °F (Jul 19, 2:20 pm)100% (Jul 12, 8:50 am)30.24 "Hg (Jul 12, 8:50 am)
Low45 °F (Jul 13, 4:50 am)38% (Jul 14, 1:50 pm)29.74 "Hg (Jul 12, 9:35 am)
Average65 °F75%29.97 "Hg
* Reported Jul 11 1:20 am — Jul 26 1:50 am, Gummersbach. Weather by CustomWeather, © 2017

Note: Actual official high and low records may vary slightly from our data, if they occured in-between our weather recording intervals... More about our weather records

Advertising

Gummersbach Weather History for the Previous 24 Hours

Scroll right to see more
 ConditionsComfort  
Time TempWeatherWind HumidityBarometerVisibility
1:50 am
Wed, Jul 26
59 °FPassing clouds.10 mph100%29.77 "Hg5 mi
1:20 am59 °FPassing clouds.10 mph94%29.77 "HgN/A
12:50 am59 °FPassing clouds.9 mph100%29.77 "Hg5 mi
12:20 am59 °FLight rain. Passing clouds.12 mph100%29.77 "Hg5 mi
11:50 pm
Tue, Jul 25
59 °FLight rain. Passing clouds.15 mph100%29.77 "Hg5 mi
11:20 pm59 °FPassing clouds.14 mph100%29.77 "Hg6 mi
10:50 pm59 °FPassing clouds.17 mph100%29.77 "Hg5 mi
10:20 pm59 °FPassing clouds.16 mph100%29.77 "Hg4 mi
9:50 pm59 °FLight rain. Mostly cloudy.17 mph100%29.74 "HgN/A
9:20 pm59 °FLight rain. Partly sunny.20 mph100%29.74 "Hg5 mi
8:50 pm59 °FLight rain. Partly sunny.22 mph94%29.74 "HgN/A
8:24 pm59 °FLight rain. Mostly cloudy.22 mph94%29.74 "Hg5 mi
8:02 pm59 °FLight rain. Mostly cloudy.18 mph94%29.74 "HgN/A
7:50 pm59 °FRain. Partly sunny.18 mph94%29.74 "Hg5 mi
7:20 pm59 °FLight rain. Partly sunny.16 mph94%29.74 "HgN/A
6:50 pm61 °FRain showers. Broken clouds.15 mph88%29.77 "HgN/A
6:23 pm61 °FLight rain. Partly sunny.13 mph94%29.77 "HgN/A
6:20 pm61 °FRain showers. Broken clouds.14 mph94%29.77 "HgN/A
5:50 pm61 °FRain showers. Broken clouds.15 mph94%29.77 "HgN/A
5:20 pm61 °FLight rain. Broken clouds.9 mph94%29.77 "HgN/A
4:50 pm61 °FLight rain. Partly sunny.12 mph94%29.77 "HgN/A
4:20 pm61 °FLight rain. More clouds than sun.8 mph94%29.77 "HgN/A
3:58 pm61 °FLight rain. More clouds than sun.5 mph94%29.77 "HgN/A
3:50 pm61 °FRain showers. More clouds than sun.5 mph94%29.77 "HgN/A
3:27 pm61 °FSprinkles. More clouds than sun.7 mph88%29.77 "HgN/A
3:01 pm63 °FLots of rain. Mostly cloudy.10 mph88%29.77 "Hg6 mi
2:20 pm63 °FLight rain. Partly sunny.14 mph83%29.77 "HgN/A
1:55 pm63 °FRain showers. Broken clouds.8 mph83%29.77 "HgN/A
1:20 pm64 °FBroken clouds.13 mph78%29.80 "HgN/A
12:50 pm63 °FBroken clouds.13 mph83%29.80 "HgN/A
12:20 pm61 °FLight rain. Broken clouds.8 mph88%29.80 "HgN/A
11:50 am59 °FRain. Partly sunny.7 mph94%29.80 "Hg3 mi
11:20 am57 °FLight rain. Mostly cloudy.9 mph100%29.80 "Hg4 mi
10:50 am59 °FLight rain. Mostly cloudy.13 mph94%29.80 "Hg6 mi
10:28 am59 °FRain. Mostly cloudy.17 mph94%29.80 "Hg4 mi
10:20 am59 °FRain. Mostly cloudy.18 mph94%29.80 "Hg3 mi
9:50 am59 °FRain. Mostly cloudy.17 mph94%29.80 "Hg4 mi
9:20 am57 °FRain. Partly sunny.10 mph100%29.80 "Hg3 mi
9:03 am57 °FRain. Partly sunny.10 mph100%29.80 "Hg2 mi
8:50 am57 °FLight rain. Partly sunny.10 mph100%29.80 "Hg5 mi
8:20 am57 °FLight rain. Partly sunny.9 mph94%29.80 "Hg5 mi
7:50 am57 °FLight rain. Partly sunny.10 mph94%29.80 "Hg4 mi
7:20 am57 °FLight rain. Partly sunny.12 mph94%29.80 "Hg4 mi
6:50 am57 °FFog.10 mph100%29.80 "Hg3 mi
6:20 am57 °FLight rain. Fog.8 mph94%29.80 "Hg3 mi
5:50 am57 °FLight rain. Fog.7 mph94%29.80 "Hg3 mi
5:33 am57 °FLight rain. Fog.12 mph94%29.83 "Hg2 mi
4:50 am57 °FLight rain. Passing clouds.12 mph100%29.83 "Hg5 mi
4:20 am57 °FPassing clouds.13 mph100%29.83 "HgN/A
3:59 am57 °FSprinkles. Passing clouds.14 mph100%29.83 "HgN/A
3:50 am57 °FRain showers. Partly cloudy.12 mph100%29.83 "HgN/A
3:20 am59 °FRain showers. Passing clouds.8 mph94%29.83 "HgN/A
2:50 am59 °FLight rain. Passing clouds.8 mph88%29.83 "HgN/A
2:20 am59 °FPassing clouds.9 mph88%29.83 "HgN/A
Weather by CustomWeather, © 2017

See weather overviewHow to use our weather pages